TimeCST,TemperatureF,Dew PointF,Humidity,Sea Level PressureIn,VisibilityMPH,Wind Direction,Wind SpeedMPH,Gust SpeedMPH,PrecipitationIn,Events,Conditions,WindDirDegrees,DateUTC
12:54 AM,32.0,27.0,82,30.07,10.0,Calm,Calm,-,N/A,,Clear,0,2012-11-26 06:54:00
1:54 AM,30.0,26.1,85,30.08,10.0,Calm,Calm,-,N/A,,Clear,0,2012-11-26 07:54:00
2:54 AM,28.9,25.0,85,30.10,10.0,Calm,Calm,-,N/A,,Clear,0,2012-11-26 08:54:00
3:54 AM,30.0,26.1,85,30.10,10.0,Calm,Calm,-,N/A,,Clear,0,2012-11-26 09:54:00
4:54 AM,30.0,26.1,85,30.12,10.0,Calm,Calm,-,N/A,,Clear,0,2012-11-26 10:54:00
5:54 AM,30.0,24.1,79,30.14,10.0,NNE,3.5,-,N/A,,Partly Cloudy,20,2012-11-26 11:54:00
6:54 AM,35.1,27.0,72,30.18,10.0,NE,6.9,-,N/A,,Overcast,40,2012-11-26 12:54:00
7:54 AM,36.0,27.0,70,30.19,10.0,NE,9.2,-,N/A,,Overcast,50,2012-11-26 13:54:00
8:54 AM,37.0,27.0,67,30.21,10.0,NE,10.4,-,N/A,,Overcast,40,2012-11-26 14:54:00
9:54 AM,39.0,27.0,62,30.22,10.0,NE,10.4,-,N/A,,Overcast,40,2012-11-26 15:54:00
10:54 AM,39.9,27.0,60,30.24,10.0,NNE,9.2,-,N/A,,Overcast,30,2012-11-26 16:54:00
11:54 AM,43.0,27.0,53,30.24,10.0,NNE,6.9,-,N/A,,Overcast,30,2012-11-26 17:54:00
12:54 PM,44.1,27.0,51,30.23,10.0,NNE,9.2,-,N/A,,Overcast,20,2012-11-26 18:54:00
1:54 PM,43.0,26.1,51,30.24,10.0,North,11.5,-,N/A,,Overcast,10,2012-11-26 19:54:00
2:54 PM,43.0,26.1,51,30.25,10.0,North,15.0,-,N/A,,Overcast,360,2012-11-26 20:54:00
3:54 PM,42.1,26.1,53,30.27,10.0,North,11.5,-,N/A,,Overcast,10,2012-11-26 21:54:00
4:54 PM,41.0,23.0,49,30.30,10.0,NNE,11.5,20.7,N/A,,Overcast,20,2012-11-26 22:54:00
5:54 PM,39.0,24.1,55,30.33,10.0,North,9.2,-,N/A,,Overcast,10,2012-11-26 23:54:00
6:54 PM,37.0,26.1,65,30.35,10.0,North,12.7,-,N/A,,Overcast,350,2012-11-27 00:54:00
7:54 PM,35.1,25.0,67,30.36,10.0,North,10.4,-,N/A,,Overcast,350,2012-11-27 01:54:00
8:46 PM,33.8,24.8,70,30.36,10.0,North,5.8,-,N/A,,Overcast,350,2012-11-27 02:46:00
8:54 PM,33.1,23.0,66,30.38,10.0,North,8.1,-,N/A,,Mostly Cloudy,360,2012-11-27 02:54:00
9:54 PM,32.0,19.9,61,30.40,10.0,North,6.9,-,N/A,,Scattered Clouds,350,2012-11-27 03:54:00
10:54 PM,30.0,19.9,66,30.41,10.0,North,4.6,-,N/A,,Partly Cloudy,350,2012-11-27 04:54:00
11:54 PM,28.9,19.0,67,30.43,10.0,NNW,4.6,-,N/A,,Clear,330,2012-11-27 05:54:00